Wind_Speed
24 23 22 22 22 22 23 23 23 22 21 21 22 25 26 27 26 26 26 25 25 24 22 20 17 18 25 30 29 29 30 30 30 29 28 26 24 22 20 19 20 21 21 22 22 22 24 24 24 24 22 21 22 24 24 23 23 24 25 25 25 26 25 19 11 9 14 20 24 27 28 30 32 32 31 33 35 36 36 33 30 29 30 31 32
24 24 24 24 24 23 23 23 23 23 23 22 22 24 26 27 27 27 28 27 28 30 27 22 18 17 26 33 32 31 32 32 32 31 30 29 26 24 24 22 21 21 20 20 20 19 19 20 22 22 22 21 21 21 22 22 23 25 25 24 24 26 27 24 18 12 11 17 23 25 26 29 32 32 33 34 37 38 37 35 32 31 31 32 34
24 24 23 23 24 24 23 23 23 23 23 23 21 22 24 26 27 27 27 26 27 29 27 25 22 19 27 37 37 34 34 33 33 33 31 29 27 25 25 24 22 21 20 20 19 18 17 18 20 20 19 20 20 19 19 21 23 24 25 25 25 26 27 27 23 17 14 17 22 24 26 29 31 33 35 36 37 38 38 36 35 34 33 33 35
23 23 22 22 22 23 22 22 22 22 22 22 21 21 22 23 25 27 28 28 28 28 25 23 22 21 26 35 37 35 35 34 35 36 32 30 28 26 25 24 23 22 20 19 19 18 18 19 20 19 17 17 17 18 19 20 21 23 25 27 27 27 26 26 27 24 18 17 21 26 28 31 32 33 34 35 35 38 38 37 36 35 35 35 35
22 22 22 23 22 23 22 22 22 22 21 22 21 22 22 22 22 25 27 29 29 30 29 25 22 20 23 29 33 35 37 37 37 38 35 31 28 26 25 24 23 22 20 18 18 17 17 19 20 19 18 17 16 17 18 20 21 23 27 27 25 25 25 26 29 27 23 19 19 23 27 30 30 32 35 34 32 33 34 34 35 36 36 36 36
22 22 23 24 24 24 25 24 24 24 23 23 22 22 23 22 22 22 25 27 29 30 30 28 24 20 20 24 29 34 38 39 39 40 37 34 30 27 25 24 22 22 21 19 18 17 16 18 20 20 18 18 18 18 19 21 22 24 29 28 24 22 24 27 27 26 25 24 21 21 25 28 27 27 32 36 34 32 30 28 29 32 34 35 36
20 22 23 24 25 25 26 25 25 25 24 24 25 25 25 25 23 22 22 25 27 29 29 28 26 22 20 23 29 34 38 41 41 41 40 36 32 28 27 25 24 23 23 21 19 17 17 17 17 19 18 17 17 18 19 21 23 25 28 28 25 23 24 26 26 25 25 23 21 22 24 26 27 27 30 34 34 33 31 27 24 27 30 33 35
20 20 20 22 23 23 24 25 24 23 23 23 25 26 27 28 26 24 23 23 25 26 28 28 27 24 23 26 30 34 38 41 43 43 42 38 32 28 27 27 27 27 26 24 22 21 19 16 14 14 16 16 16 16 18 20 23 26 27 26 25 24 24 24 23 22 23 21 21 21 21 22 25 25 27 29 27 26 30 32 30 29 30 32 35
24 23 22 21 21 21 22 24 25 24 22 22 23 25 26 28 28 27 25 24 24 25 27 28 28 27 27 29 31 35 38 40 43 43 42 39 34 29 27 27 28 29 27 26 25 23 21 18 13 12 14 15 15 16 18 21 23 25 26 27 26 24 23 22 21 20 21 20 19 19 18 19 22 22 23 28 28 27 31 32 29 29 30 31 33
27 27 27 26 26 25 25 25 26 27 25 22 21 24 26 26 27 27 26 25 24 26 27 28 29 29 29 30 32 35 38 40 42 42 41 39 35 31 28 27 27 27 26 26 26 25 23 20 16 14 15 16 16 17 19 22 24 26 26 26 26 26 23 21 21 21 19 16 17 18 17 17 23 26 26 29 30 29 32 31 27 27 27 24 24
27 27 28 28 28 28 28 27 27 27 28 25 22 22 24 26 26 26 26 25 24 25 28 29 30 30 29 31 32 33 37 39 41 42 42 40 37 33 30 28 27 27 26 27 28 27 26 24 20 17 16 15 15 15 16 20 23 26 27 27 27 27 26 23 22 22 19 17 19 20 19 19 25 29 29 29 29 29 32 32 28 27 25 20 17
27 28 28 28 28 28 28 28 28 27 28 28 26 22 22 25 27 26 26 27 25 25 27 28 29 29 29 30 31 33 37 39 40 41 42 41 39 35 32 29 29 29 29 29 28 28 29 28 26 23 20 17 15 14 14 15 19 23 26 27 27 28 27 25 25 24 23 22 21 21 22 22 26 29 30 30 31 31 32 32 31 31 30 25 21
27 27 27 27 27 26 26 28 29 28 27 27 27 25 23 23 25 26 25 25 26 27 27 28 28 29 29 30 30 32 35 39 40 40 40 41 39 37 34 29 28 30 30 29 28 28 28 30 30 29 25 20 18 17 16 15 16 19 22 24 26 28 29 28 28 28 28 28 26 24 26 25 26 32 35 34 34 32 30 31 32 32 31 30 30
26 26 26 25 25 24 25 27 29 29 27 26 26 26 25 24 24 25 24 23 24 26 27 27 28 29 29 29 29 31 33 37 39 39 39 39 38 37 34 30 29 32 31 30 30 29 27 28 30 31 29 25 23 22 20 18 17 17 19 20 22 25 28 29 30 30 30 30 30 31 34 33 33 37 38 38 37 36 35 35 36 35 32 31 33
25 24 24 23 23 22 23 25 27 28 28 27 27 26 26 25 25 25 25 23 23 25 26 27 27 28 29 29 29 30 32 34 36 38 38 38 36 36 34 31 31 33 32 32 32 30 27 27 28 31 31 29 28 26 24 23 21 18 19 19 19 21 26 29 31 32 32 31 32 34 36 36 37 38 39 41 41 41 42 42 39 36 31 27 26
23 23 22 21 21 20 21 24 25 26 27 27 27 26 27 27 27 25 25 25 25 27 27 27 27 27 28 29 29 30 32 33 34 36 38 38 37 36 34 32 31 32 33 33 32 31 29 28 29 31 32 31 30 29 26 24 22 19 19 20 20 19 22 26 28 30 31 31 32 33 32 32 34 34 35 40 42 40 35 32 31 29 26 24 24
21 20 20 20 19 19 20 22 24 25 25 25 25 25 26 27 27 26 25 25 26 28 29 29 29 29 29 29 29 29 31 33 33 33 35 37 37 36 34 32 30 30 31 32 32 31 29 27 28 31 32 32 32 30 28 26 22 18 17 20 21 19 19 22 24 25 27 29 31 31 31 31 32 32 33 35 39 38 30 24 28 31 26 19 18
19 18 18 18 18 18 18 20 23 24 23 23 23 23 24 25 26 25 24 23 23 25 28 29 30 31 31 30 30 29 30 33 32 31 33 35 36 35 34 33 30 28 29 31 32 32 31 28 29 31 32 31 30 30 29 27 24 20 16 18 21 21 20 20 21 22 21 23 25 26 27 28 29 31 33 32 34 38 36 31 33 35 28 21 19
17 17 16 17 18 17 16 18 21 23 22 22 21 21 21 22 23 24 24 24 22 22 25 28 30 32 32 31 30 30 30 33 33 31 30 33 35 35 34 33 31 28 28 29 31 32 33 32 31 31 31 29 29 29 28 26 25 22 18 15 18 24 24 21 20 20 19 18 18 20 22 24 25 28 31 31 31 36 41 40 38 36 31 26 24
15 15 15 17 18 17 16 16 19 21 22 21 20 20 20 20 22 24 24 24 24 23 24 27 28 31 32 32 31 31 31 33 33 30 29 30 33 34 34 32 31 28 26 26 28 31 33 33 33 32 31 29 28 28 27 25 24 21 18 15 15 19 22 20 19 17 17 16 16 17 19 21 23 22 22 25 29 34 39 39 38 40 36 30 28
14 13 14 16 17 16 15 15 16 18 20 21 20 19 19 20 21 23 24 25 26 25 25 26 28 30 32 32 32 31 31 32 33 31 28 29 31 33 34 33 30 27 25 24 26 28 31 32 33 32 31 29 28 28 27 25 23 20 18 17 16 13 13 17 17 15 15 16 15 16 17 18 19 17 15 18 24 30 34 34 33 37 38 35 33
12 11 12 14 16 15 14 14 14 16 17 19 20 19 18 19 21 22 24 25 26 27 27 27 28 29 31 31 32 33 32 32 33 32 30 28 29 30 32 32 30 27 25 25 26 27 29 30 30 31 30 28 28 28 28 27 25 22 19 16 13 11 11 15 16 14 14 15 15 15 15 15 14 13 14 17 19 21 23 24 24 27 30 32 34
10 10 9 10 12 13 12 12 13 14 16 18 18 18 18 19 20 22 24 25 27 27 28 28 28 29 31 31 32 33 33 32 33 33 31 29 28 29 30 30 30 29 26 26 26 27 28 28 27 29 29 29 29 29 29 30 30 26 19 12 3 4 9 13 15 16 16 16 14 13 11 11 12 12 11 12 12 13 16 18 20 22 22 22 26
14 14 13 11 10 10 11 11 11 12 14 16 17 17 18 19 20 21 23 25 27 28 28 28 28 29 30 30 31 32 33 33 33 32 32 30 26 27 29 29 30 30 28 27 27 27 28 27 26 26 27 28 29 30 30 31 32 30 24 17 11 9 7 9 13 15 16 17 16 13 11 10 11 12 12 11 11 12 15 16 17 18 18 17 18
16 17 17 15 12 9 9 9 10 10 11 13 15 15 17 18 19 19 21 24 26 27 27 27 27 27 28 29 30 31 33 34 34 34 33 30 25 25 27 28 29 29 29 29 28 27 27 27 27 26 26 27 28 31 33 33 33 33 30 26 23 21 17 13 13 14 15 18 19 17 15 13 13 14 16 18 18 17 18 19 19 18 19 21 20
16 15 14 15 15 13 9 8 8 9 9 11 13 13 15 17 18 17 19 21 24 25 26 26 26 26 27 28 29 30 31 33 34 34 32 28 24 24 26 27 28 29 30 30 29 29 28 29 29 29 29 29 29 30 32 33 33 34 35 32 31 30 28 24 19 18 18 18 20 21 18 16 16 17 20 22 22 22 22 24 25 25 25 27 27
14 13 11 11 14 15 13 9 8 8 9 10 11 11 12 15 16 16 16 18 21 23 25 26 25 26 27 28 29 29 30 32 34 34 31 27 24 24 25 27 28 29 30 31 30 30 31 31 31 31 32 32 32 31 31 32 33 34 35 35 33 32 31 30 27 24 21 20 21 22 20 19 18 19 22 24 24 23 23 25 26 27 27 30 31
11 10 9 9 12 14 14 13 11 10 10 10 11 11 11 13 14 15 14 15 17 20 22 23 24 24 25 27 29 29 30 31 32 32 30 27 25 23 23 25 27 27 27 30 31 31 33 33 33 34 35 35 34 34 33 33 33 33 33 33 33 33 32 30 29 29 26 24 24 24 23 21 20 21 23 25 24 23 23 25 25 24 26 31 30
10 9 9 9 11 12 13 14 14 12 11 11 11 10 10 11 12 13 12 12 14 16 19 20 21 22 24 26 28 29 29 29 28 28 26 25 24 23 22 22 24 25 25 27 30 32 34 34 34 33 33 33 33 33 33 33 33 32 32 31 31 32 32 31 30 29 27 27 28 27 26 24 22 22 24 25 24 23 23 25 25 23 26 31 29
8 9 9 9 9 11 12 13 13 12 12 12 11 11 11 10 10 12 12 11 11 13 16 18 18 19 21 24 26 27 26 24 23 24 25 24 22 21 20 19 21 24 25 28 30 32 32 31 31 31 30 30 29 29 30 31 31 31 31 31 29 29 28 29 29 28 28 29 29 28 27 26 24 24 26 26 26 25 25 26 26 26 28 30 28
8 9 10 9 9 9 9 10 10 11 12 12 13 13 11 10 10 11 12 10 9 10 14 17 17 17 18 20 23 26 26 25 23 23 24 24 22 22 20 18 19 22 26 29 30 30 29 28 28 29 29 28 28 28 28 29 29 29 30 31 31 30 27 26 25 26 27 29 29 28 27 26 25 26 27 27 28 29 29 29 30 29 28 28 27
9 9 10 10 10 9 8 8 8 10 10 11 11 12 11 10 10 11 12 11 8 8 11 16 18 17 17 18 20 24 27 29 27 23 22 22 22 21 20 18 19 22 25 28 28 28 27 26 26 27 28 27 28 28 28 28 29 29 29 30 30 30 29 26 24 23 25 25 25 24 25 25 26 26 26 26 27 28 28 29 30 29 28 28 27
9 9 9 10 9 7 7 7 8 8 9 9 9 10 10 10 9 10 12 11 9 8 11 15 17 17 17 17 18 21 25 29 28 25 22 22 21 22 22 22 22 22 23 25 26 26 26 26 26 26 27 27 28 29 29 29 29 30 30 29 29 29 29 28 27 26 26 24 23 21 21 22 24 25 24 24 24 24 24 24 24 25 24 24 24
9 9 9 9 7 5 6 7 7 8 8 8 8 8 9 9 8 10 11 11 9 8 11 14 16 16 16 16 16 18 23 28 29 25 22 22 22 22 23 23 23 22 21 22 23 22 22 24 25 25 26 26 27 28 29 29 30 30 30 29 30 30 29 28 28 28 26 25 24 22 20 20 20 21 21 21 21 21 21 21 20 21 21 20 20
10 10 9 8 6 4 5 6 6 6 6 6 6 6 8 8 8 9 10 9 8 7 9 12 14 15 15 14 14 16 20 25 28 26 23 22 22 22 23 24 25 25 25 24 22 20 19 20 21 23 25 26 25 26 26 27 27 28 28 28 29 29 29 29 28 27 26 26 25 23 22 21 20 20 21 21 20 19 19 19 19 19 19 19 19
11 10 8 5 4 3 2 4 6 6 5 5 5 5 6 6 7 8 8 8 7 6 8 10 12 14 13 13 13 15 17 21 25 26 23 21 21 23 24 25 25 25 26 25 24 22 20 18 17 18 20 22 24 24 24 24 24 23 24 26 27 27 27 26 26 26 26 25 25 24 23 22 21 20 21 22 21 19 18 18 19 19 19 19 19
10 8 6 4 3 3 2 3 6 6 4 3 3 4 5 5 6 6 6 6 6 6 6 9 11 12 13 12 12 13 15 18 21 23 24 22 21 22 23 23 23 23 24 24 24 23 23 21 20 19 18 18 19 21 22 21 21 21 22 23 25 25 25 24 23 23 23 23 23 23 22 22 21 20 20 20 19 18 17 18 19 19 19 19 19
6 5 5 5 5 5 3 6 9 6 3 2 3 3 3 3 4 5 4 5 6 6 6 7 9 11 11 11 11 11 14 16 18 20 23 24 23 22 22 21 21 21 22 22 22 22 22 23 23 24 23 20 16 16 18 19 19 19 20 21 21 22 22 23 23 23 22 21 21 20 20 19 19 19 18 18 16 15 15 15 17 17 17 16 17
5 4 3 4 5 5 4 8 9 6 4 4 4 4 2 2 3 3 3 3 4 5 6 6 8 9 9 9 9 10 12 15 17 18 20 22 23 22 20 20 20 20 20 20 21 20 20 21 22 23 25 24 19 14 15 17 18 18 19 20 20 20 20 21 22 22 20 19 19 18 17 17 16 16 16 15 15 15 12 10 11 12 12 12 12
5 3 1 2 4 5 5 7 6 5 5 4 4 3 2 1 2 1 1 2 3 4 6 6 7 7 7 7 8 9 11 13 14 15 16 18 20 21 20 19 18 18 18 19 19 19 18 19 20 21 23 24 21 16 13 13 15 16 17 19 20 20 20 20 20 19 18 17 17 17 16 15 15 15 15 14 14 15 13 9 8 8 9 10 11
4 2 0 1 4 5 5 5 4 3 4 3 2 1 1 1 1 1 1 1 2 4 5 6 6 7 6 5 6 8 9 10 12 13 14 15 17 18 19 18 17 16 15 15 16 17 17 17 18 19 21 22 21 18 15 13 13 13 15 16 18 19 20 21 20 19 17 15 15 15 14 14 15 16 15 14 13 13 13 10 7 8 9 10 12
5 2 0 2 4 4 3 3 2 1 2 4 3 1 1 1 1 2 2 2 2 3 4 4 5 6 6 5 5 6 8 9 10 11 13 13 14 15 17 17 17 16 15 14 14 15 15 15 16 18 20 21 19 16 15 15 14 12 13 15 16 17 18 20 20 19 17 15 14 13 12 12 13 14 14 14 14 13 13 11 8 8 8 9 11
6 2 1 3 3 2 2 2 3 4 2 2 3 2 1 1 1 2 4 3 2 3 4 3 3 5 7 6 5 6 7 7 8 10 11 12 12 13 14 14 15 15 15 15 14 13 14 14 14 15 18 20 19 16 14 14 13 13 13 14 14 15 16 17 17 18 17 15 14 13 12 11 11 12 13 14 14 14 13 12 10 8 7 6 7
6 3 2 4 4 3 1 1 3 4 5 5 4 2 2 2 2 2 5 4 2 3 4 4 3 3 6 7 6 6 6 6 7 9 10 10 11 11 12 12 13 14 14 14 13 13 14 14 14 13 15 17 18 17 15 14 14 14 14 14 14 15 16 16 15 15 14 13 13 12 12 11 11 11 13 13 13 12 13 13 12 10 8 7 6
6 2 3 5 5 3 2 3 5 6 7 7 6 4 3 2 2 1 4 5 4 4 4 3 2 3 5 6 5 6 6 5 5 7 9 9 9 10 10 11 12 13 13 13 13 12 13 13 13 12 12 14 15 16 15 15 15 15 14 14 15 15 15 14 13 11 10 10 11 11 11 11 11 11 12 12 11 11 10 10 9 10 9 9 8
7 4 6 6 4 2 2 5 6 6 6 7 8 8 7 6 5 4 5 6 6 5 4 4 2 2 4 5 4 4 5 4 4 6 7 7 8 9 9 10 11 12 12 13 13 12 11 11 11 11 10 11 12 13 14 14 15 15 15 14 15 15 14 13 11 9 7 8 9 10 10 9 9 9 9 9 9 9 9 7 7 7 8 8 8
8 7 7 5 4 3 3 5 7 7 6 7 8 7 6 6 6 6 5 5 5 5 4 4 4 3 3 3 3 3 3 3 4 6 7 6 6 7 8 9 10 11 11 11 11 11 10 9 8 8 8 8 9 10 12 13 14 15 15 14 13 13 12 10 9 8 7 6 7 8 8 8 8 7 7 7 6 7 8 7 5 5 6 7 6
9 9 8 6 5 4 3 4 7 9 7 7 6 5 5 5 5 4 3 3 4 4 3 4 4 4 3 3 3 2 2 3 4 5 6 5 5 6 7 8 9 10 10 10 9 9 9 8 7 6 6 6 6 8 9 11 12 14 15 14 12 10 9 8 7 7 7 6 6 7 8 7 7 7 7 7 6 5 6 6 5 2 3 4 6
11 10 10 9 7 5 5 5 9 9 7 6 6 4 3 4 4 3 3 3 2 2 3 5 5 4 4 3 2 2 1 2 4 4 5 5 5 5 6 7 7 8 8 9 9 9 9 8 7 6 5 6 7 7 9 11 13 15 15 13 10 7 6 6 6 6 5 5 6 7 7 7 7 6 6 6 6 4 3 4 4 2 2 2 3
13 13 12 11 10 7 6 8 10 9 8 8 8 6 5 5 5 5 5 4 2 2 4 4 4 3 2 3 2 1 2 2 3 3 4 6 6 5 5 7 7 7 7 8 9 9 9 9 8 7 6 6 7 7 8 10 13 15 15 11 8 6 5 5 5 4 4 4 5 7 8 7 7 6 6 6 6 4 3 3 4 4 3 2 1
14 14 14 13 11 9 8 9 10 10 10 10 10 9 8 7 7 6 6 5 4 4 4 4 3 2 1 2 2 1 2 3 3 3 5 6 6 5 5 6 6 7 7 8 8 8 9 9 9 9 8 8 7 6 7 9 13 15 14 12 8 6 5 5 5 4 4 4 4 6 8 9 8 7 7 7 5 4 4 3 3 4 4 3 2
Wind_Direction
74 73 72 72 72 69 65 62 59 56 54 52 49 45 41 39 38 37 39 38 38 38 33 30 26 8 9 15 16 14 13 11 8 4 360 356 353 349 342 336 330 320 309 299 289 278 267 259 255 252 247 244 243 237 233 232 229 226 227 226 221 223 223 215 217 234 225 222 220 216 214 207 202 205 205 204 206 207 208 209 207 206 205 204 204
75 74 72 72 71 70 67 63 59 56 55 54 51 47 43 41 40 39 41 39 39 42 39 34 31 18 15 19 19 17 14 11 8 5 2 358 354 352 348 343 337 329 319 308 296 285 272 259 254 254 250 247 244 236 231 231 231 230 227 225 222 222 221 215 218 231 226 220 218 215 211 204 201 203 204 203 203 203 204 205 205 205 205 205 204
75 73 71 70 70 69 66 63 60 57 55 53 51 48 44 43 42 41 40 37 35 37 36 33 33 26 19 22 22 18 15 12 8 5 2 359 356 353 350 346 342 336 327 319 308 295 282 267 260 259 255 249 248 246 239 234 234 233 228 223 223 224 221 218 219 223 223 220 215 209 206 204 202 202 203 205 204 202 202 203 204 204 204 206 206
78 74 72 71 71 70 67 64 60 57 55 53 50 47 43 42 43 43 42 40 36 34 31 27 27 24 20 21 21 19 15 12 8 6 3 359 356 353 351 348 344 338 330 322 315 302 288 277 272 267 259 251 250 251 249 245 241 237 234 230 227 226 225 223 223 222 221 222 214 207 204 203 203 202 202 205 204 201 200 202 203 203 205 207 208
83 78 75 75 74 73 70 65 61 58 56 54 51 47 44 41 42 43 43 41 38 34 32 28 25 24 19 17 17 17 15 12 8 5 3 360 357 352 350 348 344 341 335 326 321 312 292 279 278 274 265 259 258 254 248 246 245 242 243 240 231 227 226 225 226 223 220 223 218 208 204 203 202 202 201 200 199 197 198 200 201 203 205 207 209
84 80 78 77 75 72 70 67 64 62 60 59 56 51 48 46 45 43 42 41 38 33 32 30 28 26 21 16 15 15 15 13 9 5 3 1 358 354 351 349 348 346 342 335 330 323 306 290 284 280 273 267 263 255 246 243 244 244 246 243 233 226 226 226 227 223 219 222 219 206 200 199 197 196 199 199 194 191 191 196 201 202 203 206 208
84 81 79 77 75 71 69 67 66 65 64 62 60 55 52 50 49 46 43 41 38 33 32 32 30 29 24 18 15 15 15 15 11 7 6 3 359 357 356 355 354 354 351 346 339 334 325 313 302 292 284 278 271 260 250 243 242 243 244 242 233 225 226 228 227 222 220 219 214 205 198 196 194 193 197 199 196 191 185 183 192 200 203 206 207
78 78 78 76 73 69 66 63 61 62 63 63 61 57 54 52 51 50 47 43 39 34 33 33 32 32 27 21 18 16 16 16 13 10 8 6 2 1 0 359 358 357 356 352 346 342 338 329 317 306 298 292 285 275 262 251 246 244 244 242 235 225 223 227 223 216 214 213 210 206 196 192 193 192 191 192 191 189 186 185 189 196 202 207 208
71 71 72 71 69 66 63 59 56 56 58 61 60 56 55 53 52 51 49 46 42 37 35 34 33 31 27 22 20 18 16 15 14 12 11 8 6 4 2 2 2 360 358 356 351 350 350 343 329 321 318 308 294 282 271 261 254 249 245 243 236 224 219 224 221 213 210 209 208 205 195 191 193 189 185 188 190 189 190 191 191 193 198 204 208
70 71 71 70 69 68 65 61 59 56 57 61 62 58 55 54 52 51 49 46 43 39 37 36 34 31 27 23 21 19 17 16 14 15 16 14 12 9 7 7 7 4 1 358 357 357 359 356 345 335 331 323 308 293 280 270 263 256 251 245 237 226 216 214 218 217 212 210 210 205 196 193 196 193 191 194 195 190 187 189 189 189 193 199 206
71 72 73 72 71 68 65 62 60 58 57 59 62 60 56 54 53 51 47 43 41 39 37 36 34 31 29 26 23 20 18 16 15 16 17 18 17 14 13 11 8 5 2 1 0 359 359 359 359 356 351 342 330 313 294 280 270 263 257 252 246 236 223 212 212 213 209 210 216 210 201 197 198 198 197 196 195 191 189 188 185 184 187 192 200
73 74 75 75 72 69 66 63 60 58 57 56 58 59 57 53 50 49 46 42 39 37 35 33 32 29 27 25 24 21 18 16 17 16 16 19 19 17 17 15 10 7 5 4 2 0 359 359 0 3 1 354 344 331 312 291 276 268 260 255 250 243 235 225 218 213 207 207 214 214 209 204 200 199 199 196 192 192 190 186 185 188 190 193 197
77 78 79 77 75 73 69 65 61 59 58 57 56 56 55 50 45 43 42 41 40 38 34 31 30 27 24 22 20 19 17 16 17 17 15 17 18 17 17 16 11 10 9 6 4 3 2 360 359 1 1 357 351 341 325 307 288 275 267 260 251 244 242 238 231 224 215 207 207 213 216 210 203 203 203 197 192 190 187 186 191 195 194 196 202
82 82 81 79 78 76 71 66 63 61 61 60 57 55 52 47 43 40 39 40 40 37 32 29 28 25 22 20 18 17 16 15 16 17 16 17 18 17 17 14 11 12 12 9 7 5 4 2 359 359 1 1 357 348 333 320 305 284 273 270 261 251 247 242 236 232 224 213 208 214 218 215 211 210 206 199 194 191 189 191 197 199 198 200 206
85 83 82 80 79 78 73 69 66 64 63 62 60 56 50 45 43 42 44 46 41 34 29 26 24 23 20 18 17 17 16 15 16 17 17 17 18 17 16 14 12 12 12 10 9 8 6 3 360 0 1 1 359 352 340 328 316 298 282 278 274 264 254 244 235 230 227 221 217 221 222 218 217 215 209 203 200 200 201 201 199 198 196 195 202
90 87 83 80 79 79 76 71 68 66 64 63 61 57 52 48 47 47 50 50 43 36 32 28 24 21 19 17 16 16 16 16 16 17 17 17 18 16 14 12 10 10 11 10 9 9 8 3 360 1 1 360 357 353 345 334 321 306 289 280 279 272 259 247 236 230 229 228 228 230 228 224 223 222 215 208 204 203 204 201 195 192 190 188 198
94 89 83 80 80 80 77 72 69 67 64 63 61 58 55 52 50 50 50 47 42 37 34 32 28 23 20 18 16 15 15 15 16 17 17 17 17 16 13 10 8 6 8 9 8 9 9 5 1 1 2 0 357 352 348 340 328 313 293 279 275 268 255 245 237 232 231 232 233 235 235 233 232 230 225 218 209 202 196 189 191 194 189 186 196
96 89 84 82 82 82 80 73 69 66 64 63 62 58 56 53 51 51 49 45 41 36 33 31 29 25 22 20 19 16 14 15 16 16 16 16 17 15 12 9 6 2 1 4 6 8 9 8 6 5 3 1 358 354 351 344 335 324 306 285 273 264 253 243 236 233 233 233 232 231 231 231 231 230 228 224 215 207 201 196 197 197 193 193 194
95 90 87 84 84 84 81 75 69 65 64 64 63 60 57 54 52 51 49 45 41 36 31 30 28 26 23 21 21 20 16 15 16 17 16 17 17 16 13 9 5 1 358 358 0 4 7 8 9 8 5 3 2 359 355 349 341 332 320 299 274 260 255 247 239 236 233 226 221 218 216 217 219 220 220 219 216 213 210 207 204 199 197 198 192
95 91 90 88 87 85 81 77 71 65 63 64 64 63 60 57 53 50 49 46 42 38 33 29 27 25 23 22 23 23 18 15 17 18 17 18 18 18 16 11 5 1 357 355 356 358 2 5 8 8 7 7 7 4 2 357 348 337 325 309 281 263 257 248 239 234 224 211 202 200 199 201 204 204 202 204 208 209 209 210 208 205 203 199 190
98 91 91 90 90 86 80 78 74 68 64 63 65 65 62 57 53 49 47 44 41 38 34 30 28 25 23 23 24 25 21 17 17 18 18 18 19 20 18 14 8 3 359 358 357 357 358 2 6 8 9 10 11 10 9 6 359 349 335 311 286 272 260 242 229 219 204 191 184 183 182 184 190 189 179 182 192 199 203 206 205 204 204 200 194
103 97 96 91 90 88 82 80 78 72 65 61 63 65 62 56 52 48 45 42 40 37 33 29 27 24 23 24 25 25 22 18 17 17 17 16 19 21 19 16 13 10 5 3 2 1 1 3 7 11 12 14 16 16 17 16 13 5 349 319 286 271 257 232 212 194 179 173 171 171 170 172 176 177 175 178 180 182 188 194 196 198 200 200 198
94 92 98 99 94 90 86 82 78 73 65 59 60 62 60 55 50 46 43 41 38 35 32 28 25 23 22 24 26 25 22 19 16 15 14 13 16 19 19 18 18 16 12 7 5 5 6 8 10 14 17 20 23 23 24 25 25 20 7 354 331 224 224 210 189 172 158 151 151 152 151 156 159 157 164 176 173 166 167 174 186 196 199 198 198
83 80 82 95 104 100 92 83 74 70 64 56 56 58 57 53 49 44 42 40 37 35 31 28 25 23 21 22 24 24 21 19 17 15 13 11 13 17 18 18 19 20 18 15 12 10 11 13 15 17 20 23 27 30 31 31 33 33 30 33 59 98 138 157 158 153 140 128 124 118 112 123 138 141 141 140 140 154 164 163 168 179 182 177 178
83 77 71 75 86 96 100 89 71 64 61 53 51 54 53 50 48 44 41 40 38 35 32 28 25 24 23 21 20 20 19 17 15 13 11 9 12 17 18 16 18 21 21 19 18 17 18 22 24 24 25 26 29 33 34 34 37 41 43 45 50 56 64 85 110 117 108 103 103 100 95 99 110 117 123 124 123 128 139 141 139 141 146 145 143
80 76 69 67 68 73 88 89 67 57 55 49 46 49 49 48 46 43 40 40 39 36 33 29 26 25 24 21 17 17 18 17 14 11 10 11 15 19 18 15 16 20 23 23 22 23 24 27 28 28 29 30 32 33 33 35 39 44 48 51 51 49 48 51 63 74 77 82 90 93 92 94 102 109 114 117 117 115 117 123 125 126 133 133 125
80 77 78 72 66 69 78 80 66 57 53 48 43 44 45 44 41 40 40 39 38 37 34 30 27 25 23 20 17 16 18 18 15 11 11 15 18 17 16 15 14 17 22 25 26 26 27 28 29 30 32 34 36 36 35 36 38 40 44 48 52 55 55 53 53 55 60 69 80 87 94 100 101 102 105 107 107 107 110 114 114 116 124 128 119
87 83 88 82 71 73 78 77 72 67 59 49 43 42 43 41 36 36 38 38 36 36 34 32 30 28 25 21 18 16 18 19 16 12 13 17 18 16 15 16 15 15 21 26 28 28 29 29 28 29 30 31 33 33 34 35 35 36 39 43 48 54 60 63 60 56 57 66 73 78 86 92 90 90 96 98 97 100 106 109 108 109 115 117 111
89 88 97 91 79 77 77 75 75 74 66 54 47 45 45 43 36 31 33 35 35 34 32 30 30 31 31 28 23 18 17 17 14 11 12 18 21 19 17 18 18 19 23 28 29 29 29 26 24 23 25 26 26 27 29 32 33 34 36 40 44 48 52 55 54 53 57 66 72 73 76 79 78 80 87 89 90 95 101 104 103 104 107 106 101
88 92 103 100 89 84 79 74 73 73 68 62 58 54 52 51 45 36 31 29 31 34 33 29 27 29 32 32 29 25 20 15 9 8 12 19 25 27 25 23 22 24 28 30 31 30 28 24 21 20 21 22 23 23 26 29 32 32 34 37 40 42 43 45 47 50 57 64 69 73 76 77 75 76 79 81 83 88 94 97 96 96 98 98 96
94 104 112 109 101 95 86 76 71 70 69 67 63 57 56 58 53 44 37 31 28 33 35 32 29 29 30 29 27 24 21 17 12 10 12 18 26 33 32 26 25 28 31 32 33 31 29 25 21 20 21 22 24 24 26 29 31 32 34 37 39 39 40 41 44 49 56 60 65 70 74 76 76 76 79 80 80 84 87 89 88 86 86 89 92
96 112 117 107 99 98 96 87 79 75 71 67 62 56 56 59 55 47 43 39 37 38 37 34 33 31 29 25 21 19 19 19 18 17 17 19 28 38 40 34 33 34 33 34 35 33 31 29 25 23 24 25 26 28 29 31 33 34 34 35 36 38 40 43 46 52 56 56 58 61 67 73 77 78 81 83 83 84 86 87 87 86 83 83 86
96 118 118 101 93 102 110 104 93 83 71 63 61 58 55 55 52 47 43 43 46 47 40 36 35 33 29 23 19 17 20 22 23 25 25 25 30 38 39 35 36 37 34 34 34 34 34 35 34 31 30 29 29 31 32 32 33 35 35 34 33 34 37 43 48 52 53 54 57 59 63 71 78 80 81 83 85 88 91 93 96 97 96 94 94
101 118 114 100 96 116 129 118 103 89 72 59 61 63 59 53 48 43 40 42 47 46 39 36 37 35 29 22 18 18 21 25 28 29 27 25 28 30 29 30 35 41 40 37 35 33 34 37 38 35 33 31 29 29 30 30 32 34 34 35 36 37 39 43 47 48 49 51 56 60 64 69 74 76 77 79 83 89 95 99 101 102 104 105 106
106 117 116 102 86 98 132 131 116 99 74 58 61 66 61 52 42 37 38 42 44 41 35 34 37 36 29 21 19 20 22 27 31 31 27 24 24 26 29 32 35 36 36 36 37 35 33 32 34 35 34 32 30 27 25 24 26 29 33 36 39 40 41 44 46 48 50 52 53 56 61 64 68 71 74 76 78 81 90 99 103 104 106 109 112
104 108 110 99 67 58 100 140 133 114 79 61 69 71 62 48 35 35 43 44 38 34 32 29 32 35 32 25 21 22 24 27 30 32 31 25 21 24 30 33 32 30 29 32 36 38 36 30 27 28 29 29 30 29 27 24 25 30 36 39 40 41 41 42 44 46 49 51 51 52 55 58 63 69 73 73 73 74 83 99 107 108 109 111 113
102 93 80 72 44 19 19 144 148 132 92 74 88 78 59 40 26 34 47 42 31 31 29 24 25 28 30 29 24 21 24 27 29 31 33 31 25 26 30 33 32 31 32 33 34 36 38 37 32 28 24 21 21 25 28 30 31 35 37 38 38 39 41 44 45 45 46 47 48 48 50 51 54 61 67 69 70 72 81 95 104 108 111 113 114
107 90 64 50 33 24 54 143 153 151 136 118 110 85 54 23 17 33 46 36 28 28 24 22 24 24 25 28 25 18 19 23 25 29 33 32 30 28 29 31 33 31 31 33 35 36 38 40 38 36 33 28 21 22 29 32 33 33 33 35 37 38 39 42 44 44 44 46 46 45 46 46 47 51 58 62 66 73 85 99 105 107 111 115 116
117 108 63 36 34 45 107 150 161 174 184 154 114 88 58 359 0 27 41 33 25 22 16 18 24 23 20 20 18 14 15 18 21 26 30 31 31 29 27 28 31 31 30 32 35 37 39 39 37 36 36 33 30 31 37 40 40 38 35 35 37 39 39 39 38 38 39 41 40 38 40 42 44 48 53 56 58 65 81 105 119 118 118 122 125
131 126 53 14 44 74 125 157 173 192 193 165 123 99 75 11 350 355 17 28 26 16 10 14 22 23 20 13 8 9 13 16 18 21 24 26 29 30 27 24 25 28 29 29 30 33 36 35 34 34 34 33 34 36 40 42 41 37 34 36 41 44 44 41 38 38 39 37 37 38 42 47 49 51 53 55 55 57 65 86 120 131 124 122 128
155 157 306 41 72 82 116 155 182 211 211 196 166 125 114 75 26 321 307 353 20 7 1 11 22 25 24 15 1 359 5 11 14 15 17 20 25 28 27 24 21 22 24 24 24 26 28 28 30 31 32 32 35 41 47 46 37 29 32 40 45 45 43 40 38 39 39 38 40 46 52 55 56 55 56 58 59 57 58 69 101 131 131 126 128
180 198 217 115 102 81 85 106 83 357 244 229 226 204 163 168 50 4 332 314 347 353 348 359 17 23 25 21 5 353 355 3 11 13 13 14 18 23 26 25 21 20 18 15 13 15 18 21 25 29 32 33 36 44 52 53 49 43 43 44 42 40 39 38 36 37 39 41 43 49 54 57 58 61 63 66 67 65 63 66 88 123 136 133 130
197 215 186 143 131 108 94 76 38 27 39 194 202 196 195 195 159 17 358 338 317 329 336 341 4 21 22 17 8 360 356 357 5 12 13 13 14 17 22 25 24 22 20 17 13 10 11 15 20 27 33 36 38 43 50 54 55 53 48 42 38 37 36 35 35 37 42 46 49 53 56 56 58 66 73 75 75 73 69 69 79 101 122 131 135
194 212 204 171 149 129 117 43 27 56 91 113 141 183 225 219 210 359 8 8 348 326 333 333 334 8 18 13 3 1 1 358 360 6 9 11 14 15 18 23 25 23 20 19 17 16 15 15 18 27 35 38 38 40 43 45 47 49 47 43 40 37 34 32 33 37 43 49 53 57 60 61 63 69 72 74 76 74 70 68 73 85 99 111 124
193 193 179 169 153 126 100 78 82 99 109 108 109 119 128 142 154 59 42 45 34 2 353 350 326 337 6 10 0 354 357 357 358 2 2 5 12 17 18 21 23 21 18 15 13 14 18 20 21 28 36 34 32 35 38 37 36 35 34 31 29 26 23 22 22 28 38 46 50 54 57 60 62 63 63 64 66 66 66 65 69 77 87 93 97
193 167 154 161 168 167 130 116 117 124 121 109 104 103 102 105 109 103 86 67 49 38 40 47 35 356 359 6 359 352 352 350 355 1 358 354 4 16 19 21 21 18 15 12 8 7 13 21 27 36 40 31 23 23 24 23 21 18 15 13 12 12 13 12 14 22 36 46 48 49 50 49 49 48 48 52 56 58 57 56 58 66 73 78 85
190 177 168 177 200 202 156 133 140 147 138 125 120 110 104 110 114 107 93 70 55 56 63 63 59 50 25 5 352 354 359 353 355 2 356 345 353 8 15 19 21 17 13 11 7 2 2 8 21 36 43 35 22 14 8 6 6 3 359 356 357 3 9 12 15 25 38 45 45 45 43 38 35 32 29 28 36 45 50 48 48 61 66 65 76
194 191 193 198 202 208 215 182 164 158 149 142 141 133 129 138 136 120 109 90 64 60 75 85 80 70 50 21 349 340 354 358 358 0 355 344 347 1 9 14 16 14 12 12 9 5 4 1 359 5 12 11 6 1 356 355 355 351 346 344 347 357 10 17 20 32 47 52 46 41 38 29 21 17 14 10 10 22 38 41 40 63 80 60 63
209 206 206 206 203 213 237 215 184 174 173 175 174 172 180 185 179 169 164 153 94 72 104 112 102 84 61 41 2 307 321 359 357 350 348 349 353 357 3 7 7 5 7 9 7 8 10 8 359 347 337 333 339 343 345 350 353 351 348 347 349 358 13 20 22 34 50 49 35 27 23 15 8 7 9 10 13 24 48 47 41 59 104 66 50
216 211 210 214 216 216 215 202 193 195 205 207 203 208 215 216 214 210 198 182 158 140 142 135 123 109 77 49 22 314 290 325 333 326 334 347 352 351 352 356 356 352 354 358 358 358 1 3 5 1 349 341 343 343 343 351 1 3 0 359 360 4 13 19 21 27 34 29 20 16 14 10 9 11 13 15 19 31 55 63 55 59 66 47 358
209 207 214 224 228 222 212 206 206 214 223 224 222 224 229 234 238 230 211 192 178 175 179 179 177 173 103 42 41 18 294 296 308 319 327 334 338 340 344 349 349 345 345 346 347 348 349 355 3 8 8 6 7 1 355 3 13 14 12 9 9 9 9 10 12 14 10 3 2 7 9 9 10 12 16 20 24 30 42 56 60 51 40 18 314
Height
846 846 845 844 844 843 842 841 840 839 837 836 835 834 833 832 830 828 826 824 822 820 819 818 817 816 814 811 808 805 803 800 798 795 792 789 786 783 781 778 776 773 771 769 767 766 764 762 761 762 763 763 763 765 766 767 769 768 769 769 770 772 774 775 777 777 777 779 779 781 782 783 786 788 790 792 794 796 798 800 803 805 807 808 810
847 847 846 845 845 844 843 843 841 840 838 837 837 836 835 834 832 830 828 827 825 822 821 820 818 817 815 812 808 806 803 800 798 795 792 789 785 783 780 778 775 772 769 767 766 764 763 761 760 760 760 761 761 762 763 764 764 765 766 767 767 769 770 772 774 774 775 776 777 778 780 781 783 785 787 788 790 792 795 797 800 802 804 806 808
849 848 847 846 846 845 844 844 842 841 840 839 838 838 837 836 834 832 830 829 827 824 823 821 820 818 816 812 809 806 804 801 798 795 792 789 785 782 780 777 774 771 769 766 765 763 762 760 759 758 759 759 759 760 760 761 761 761 762 763 764 766 767 769 771 771 772 773 774 776 777 778 780 781 783 785 787 789 791 793 796 799 802 804 806
850 849 848 847 847 846 845 844 843 842 841 840 840 839 838 837 836 834 833 831 829 827 825 823 821 819 817 814 811 808 805 802 799 795 792 789 785 782 779 776 774 771 768 766 764 762 760 759 758 758 758 758 757 758 758 758 758 758 759 759 761 763 764 766 767 768 770 770 771 772 773 774 776 778 781 783 785 786 788 790 793 797 799 802 804
851 851 849 848 847 846 845 844 843 842 842 841 841 840 839 838 837 836 834 832 831 828 826 824 822 820 818 816 813 810 806 803 799 795 791 788 785 782 778 775 773 770 768 765 763 761 760 758 757 757 757 756 755 756 756 756 756 755 755 756 758 760 761 762 763 765 768 769 769 770 771 772 773 775 777 779 782 785 787 788 791 794 797 800 802
852 851 850 849 848 847 846 845 843 843 843 843 842 841 840 839 838 837 835 834 832 830 827 825 823 821 820 817 814 811 807 803 799 795 791 787 784 781 778 775 772 769 767 764 762 760 759 758 757 756 755 755 754 754 754 753 753 752 751 752 755 757 757 758 760 763 764 765 767 769 769 769 770 772 774 776 778 781 784 788 791 793 795 798 800
853 852 851 850 849 848 847 846 845 845 844 844 843 842 841 840 838 838 836 835 833 831 829 826 824 822 821 818 815 812 808 804 800 796 791 787 783 780 777 774 771 769 766 764 762 760 758 757 756 755 754 754 753 752 752 751 751 750 750 751 753 755 755 755 757 760 762 763 765 766 765 766 768 770 772 774 775 777 780 784 788 791 794 795 797
854 853 852 851 850 849 848 847 847 847 846 845 844 843 842 841 840 839 837 836 834 832 830 827 825 823 821 819 816 812 808 804 800 796 791 787 784 780 777 774 771 768 766 764 761 759 757 756 754 754 753 752 752 751 750 749 748 748 748 749 750 752 753 753 754 757 760 762 763 763 763 765 766 768 770 772 774 775 777 779 782 786 790 792 795
854 853 852 851 851 850 850 849 849 848 847 846 845 844 843 842 841 840 838 837 835 833 831 829 826 824 822 819 816 813 809 805 802 798 793 788 785 781 778 775 772 769 766 763 761 758 757 755 753 753 752 751 750 749 748 747 746 745 745 745 746 748 750 751 751 754 756 758 759 760 761 763 764 766 767 768 769 771 775 777 779 783 787 790 793
855 854 853 853 852 852 851 851 850 849 848 847 846 845 844 844 842 841 839 838 836 834 832 829 827 825 822 820 817 814 810 808 805 801 796 792 787 783 780 776 773 771 768 765 761 758 756 754 752 752 751 749 749 747 747 745 744 743 743 743 743 745 746 747 747 748 751 753 755 757 758 760 761 762 763 764 766 769 772 775 777 782 786 790 792
856 855 854 854 853 853 853 852 851 850 848 848 847 846 846 845 843 842 840 839 837 835 833 830 828 826 823 821 818 815 812 810 806 802 797 793 789 785 781 778 775 773 770 766 763 760 757 755 752 751 749 748 747 745 744 743 742 741 741 741 741 741 743 744 744 743 745 747 750 752 754 755 757 758 760 761 764 766 768 771 775 779 782 786 788
857 856 856 856 855 855 855 854 853 851 849 849 848 848 847 846 844 843 841 840 838 836 834 831 829 827 824 822 819 816 814 811 807 803 798 794 790 787 784 780 778 775 771 768 766 763 759 756 753 751 749 747 745 743 741 740 739 739 738 738 739 738 739 740 741 740 740 741 744 747 750 751 753 754 756 758 760 763 766 768 771 773 776 779 782
858 857 857 857 857 857 857 855 853 852 851 851 850 849 848 846 845 844 842 841 839 837 835 832 830 828 825 823 820 818 815 812 808 804 800 796 792 789 786 783 780 777 774 771 768 765 761 758 754 751 749 747 744 742 740 738 737 736 736 736 736 736 736 737 738 738 738 738 740 742 745 748 749 749 751 753 756 759 763 766 768 769 771 773 776
859 859 859 859 859 859 857 856 855 854 853 852 851 850 849 848 846 845 843 842 840 838 836 834 831 829 827 824 822 819 816 813 809 805 802 798 794 791 788 785 783 779 776 773 770 766 764 761 757 753 750 747 745 742 739 737 736 735 734 733 733 733 733 734 735 736 737 737 737 736 738 742 743 744 746 749 751 753 756 759 762 764 767 770 774
861 861 861 861 860 859 858 857 856 856 855 854 852 852 850 849 848 846 844 843 841 840 837 835 833 830 828 825 823 820 817 814 811 807 803 799 796 792 789 787 784 781 778 775 772 768 766 763 760 756 752 749 746 743 740 737 735 733 732 731 731 730 730 730 732 733 734 735 734 733 735 738 739 741 743 745 746 748 750 751 755 760 765 770 774
863 862 862 861 861 860 859 858 857 857 856 855 854 853 852 850 849 848 846 844 843 841 838 836 834 831 829 826 823 821 818 815 812 808 804 801 797 793 791 788 785 782 779 776 773 770 767 764 761 757 753 750 747 743 741 738 735 732 730 728 728 728 727 727 729 730 732 732 732 733 734 737 739 740 741 741 743 746 749 752 756 761 765 767 770
863 863 862 862 861 861 860 859 858 858 857 856 855 854 853 852 851 849 848 846 844 842 839 837 835 832 829 826 824 821 819 816 813 810 806 802 798 795 792 789 786 784 781 778 775 771 769 766 763 758 754 750 747 743 740 737 735 732 729 727 726 725 725 725 726 727 728 729 729 731 732 734 736 739 740 740 741 744 748 751 755 759 761 763 765
864 863 863 862 862 861 860 860 859 858 858 857 856 856 855 854 852 851 849 847 845 843 841 839 836 833 830 827 825 822 820 817 814 811 808 804 800 797 794 791 788 785 782 779 776 773 770 767 764 760 755 752 748 744 740 737 734 732 729 727 725 723 723 724 724 724 725 726 726 728 730 731 733 735 736 738 739 740 742 745 749 753 755 757 759
864 864 863 863 862 862 861 860 860 859 859 858 858 857 856 855 854 852 850 849 847 845 843 840 837 834 831 828 826 823 821 818 816 813 810 806 803 799 796 792 789 786 783 780 776 773 770 767 764 761 757 753 749 745 741 738 734 731 729 727 724 721 721 722 723 723 724 724 725 726 727 729 731 732 732 734 736 737 738 740 743 747 749 751 754
865 864 864 863 863 862 861 861 861 861 860 860 859 859 858 857 855 854 852 850 848 846 844 841 838 835 832 829 827 824 822 819 817 814 811 808 805 802 798 795 791 788 785 782 778 774 771 767 764 761 757 753 749 745 742 738 735 731 728 726 724 721 720 721 722 723 723 724 724 725 726 726 728 729 730 732 733 734 736 737 739 741 744 746 749
865 864 864 863 863 863 862 862 862 862 862 861 860 860 859 858 856 854 853 851 849 846 844 842 839 837 834 831 828 826 823 821 818 816 813 810 807 804 800 798 794 791 788 785 781 777 773 769 765 762 758 754 750 746 743 739 735 731 727 724 722 721 720 721 721 722 723 724 724 724 725 725 726 728 730 731 731 732 733 735 736 738 740 742 744
865 865 864 864 864 864 864 864 864 863 863 862 861 860 859 858 857 855 854 851 849 847 845 842 840 838 835 832 829 827 825 822 820 817 815 812 809 806 803 800 797 794 790 787 783 780 776 772 768 764 760 756 752 748 744 739 735 731 727 723 720 719 720 719 720 722 723 724 724 724 724 725 726 728 729 730 730 730 731 733 735 737 738 739 740
866 865 865 865 865 865 865 865 865 864 864 863 862 861 860 859 858 856 854 852 850 848 845 843 841 838 836 833 830 828 826 823 821 819 816 814 811 808 806 803 799 796 792 789 786 782 779 775 771 767 763 758 754 749 745 741 736 731 727 723 719 719 719 719 719 721 723 724 724 725 725 725 726 727 729 729 729 730 731 732 734 735 737 738 740
866 866 866 866 866 866 866 866 866 865 864 863 863 862 861 860 858 857 855 853 851 848 846 844 842 839 837 834 832 830 827 825 822 820 817 815 813 810 808 805 801 798 794 791 788 785 781 777 773 769 765 761 757 752 748 743 739 734 730 726 721 720 720 721 721 721 722 724 725 726 727 727 727 727 728 729 730 731 731 731 733 734 735 737 739
867 867 867 867 867 867 867 867 867 866 865 864 863 862 861 860 859 858 856 854 852 850 848 846 844 841 838 836 833 831 829 826 824 821 819 817 814 812 809 806 803 800 796 793 790 787 783 779 775 771 767 763 759 754 750 747 742 737 734 730 727 724 724 724 724 724 724 725 726 727 728 729 729 729 728 729 731 732 731 731 733 735 735 736 738
868 868 868 868 867 867 867 867 867 867 866 865 864 863 862 861 860 858 857 855 853 851 849 848 845 843 840 837 835 833 830 828 825 823 820 818 816 813 811 808 805 802 799 795 792 788 785 781 777 773 769 765 761 757 754 750 746 742 738 735 733 731 730 730 729 728 729 728 728 729 730 731 732 731 730 730 731 733 733 733 735 737 738 737 738
869 869 869 869 868 868 868 867 867 867 866 865 864 864 863 862 861 859 858 856 855 853 851 849 847 844 842 839 837 834 832 829 827 824 822 820 817 815 812 810 807 804 800 797 793 790 786 783 779 775 771 767 763 760 757 754 751 747 744 742 740 738 737 737 736 735 734 733 732 732 733 734 736 735 732 731 732 734 735 736 736 739 739 737 738
869 869 869 869 869 868 868 868 867 867 866 866 865 864 863 862 861 860 859 857 856 854 853 851 848 846 844 841 838 836 833 831 829 827 824 822 819 817 814 811 809 806 803 799 796 792 788 784 781 777 773 769 766 763 760 758 755 753 751 748 746 744 743 742 741 741 740 738 736 736 736 738 739 738 735 734 736 737 738 738 739 742 742 739 741
869 870 869 869 869 869 868 868 867 867 866 866 865 864 863 863 862 861 859 858 857 856 854 853 851 848 846 843 840 837 835 833 832 830 828 824 821 819 816 813 811 808 806 802 798 794 790 786 783 780 776 774 771 768 765 763 761 759 757 754 752 750 749 747 747 747 747 745 742 742 742 743 745 744 741 739 740 741 741 742 743 745 745 744 746
869 869 869 869 869 869 868 868 867 867 867 866 865 864 864 863 862 861 860 859 858 857 855 854 852 850 848 846 843 841 839 837 835 833 830 826 824 821 818 816 814 811 808 805 801 796 793 791 788 785 782 779 777 774 772 769 767 765 763 761 758 757 755 754 754 754 752 750 749 748 748 749 750 749 747 746 746 746 746 747 748 749 749 748 751
869 869 869 869 869 869 868 868 867 867 867 866 865 865 864 863 863 862 861 860 858 857 856 855 853 851 849 847 846 844 842 839 836 833 831 828 826 823 820 818 816 813 810 807 803 800 797 795 793 790 788 785 782 780 778 775 773 771 769 767 765 763 762 761 760 759 757 755 754 753 753 753 754 754 753 752 752 751 751 752 753 754 755 755 756
869 869 869 869 869 869 868 868 868 867 867 866 866 865 864 863 863 862 861 860 859 858 857 856 854 852 850 848 847 845 843 840 837 834 832 830 828 825 822 820 818 815 813 810 806 804 802 800 798 795 793 790 788 785 783 781 779 777 775 773 771 769 768 767 765 764 762 760 760 759 759 758 758 758 758 758 758 757 757 758 759 760 761 762 763
869 869 869 869 869 868 868 868 868 867 867 866 866 865 864 864 863 862 861 860 859 858 857 856 855 853 851 850 848 846 844 841 838 835 833 832 829 827 824 822 819 817 815 812 810 808 806 804 802 800 798 795 793 790 788 786 784 782 780 778 776 775 773 772 770 768 767 766 766 765 764 764 763 763 763 763 763 763 763 764 765 766 767 769 770
868 868 868 868 868 868 868 868 868 867 867 867 866 865 865 864 863 862 862 861 860 859 857 856 855 853 852 851 849 847 845 842 840 837 835 833 831 829 826 824 821 819 817 815 813 812 810 808 806 804 802 800 798 795 793 791 789 787 785 783 781 779 778 776 774 773 772 772 771 770 770 769 769 768 768 768 769 769 769 770 771 772 773 774 775
868 868 868 868 868 868 868 868 868 867 867 867 866 865 865 864 863 862 862 861 860 859 858 857 855 854 853 851 850 848 846 844 841 839 837 835 833 831 828 826 823 821 819 817 816 815 813 811 810 808 806 804 802 800 798 796 794 792 790 788 786 784 783 781 779 778 777 776 776 775 775 774 774 773 773 773 773 773 774 774 775 777 778 778 779
868 868 868 868 868 868 868 868 868 868 867 867 866 866 865 864 863 862 862 861 860 859 858 857 856 855 854 852 851 849 847 845 843 841 839 837 835 832 830 828 826 824 822 820 819 817 815 814 812 811 809 807 805 804 802 800 798 796 795 793 791 789 788 787 785 784 783 782 781 780 780 779 779 778 778 777 777 777 778 778 779 781 782 783 783
868 868 868 868 868 867 867 867 867 867 867 866 866 866 865 864 863 862 862 861 860 859 858 857 856 855 854 853 851 850 848 847 845 843 841 839 836 834 832 830 829 827 826 824 822 820 818 817 815 813 812 810 808 807 805 803 802 800 799 797 795 794 793 791 790 789 788 787 786 785 784 784 784 783 782 782 782 782 782 782 783 785 786 787 787
867 867 867 867 867 866 866 866 866 867 866 866 866 865 865 864 863 863 862 861 860 859 858 857 856 855 854 853 852 851 849 848 846 844 842 840 837 835 834 833 831 830 828 827 825 823 821 819 818 816 814 812 811 809 808 807 805 804 803 801 800 798 797 795 794 793 792 791 791 790 789 789 788 787 787 786 786 786 786 786 787 788 789 790 790
866 867 867 866 866 866 865 865 866 866 866 866 865 865 864 864 863 862 862 861 860 859 858 857 857 856 854 853 852 851 850 848 846 844 843 841 839 837 836 834 833 832 830 829 827 825 824 822 820 818 817 815 813 811 810 810 808 807 806 804 803 802 800 799 798 796 796 795 794 793 793 792 792 791 791 790 790 790 790 790 790 790 791 792 792
866 866 866 866 866 865 865 865 865 865 865 865 865 864 863 863 863 862 861 861 860 859 858 857 857 855 855 854 852 851 850 849 847 846 844 843 841 839 837 836 835 833 832 831 829 828 826 824 823 821 819 817 815 814 812 812 811 809 808 807 806 805 803 802 801 800 799 798 797 797 796 795 795 795 794 794 794 793 793 793 793 793 793 794 794
865 865 865 865 865 864 864 864 864 864 864 864 864 863 863 863 862 862 861 860 860 859 858 857 856 855 855 854 853 852 851 849 848 847 845 844 843 841 839 838 836 835 834 833 831 830 828 827 825 823 821 820 818 816 815 814 813 812 811 810 809 807 806 805 804 803 802 801 800 800 799 798 798 798 797 797 797 796 796 795 795 795 796 796 797
865 865 865 864 864 864 864 864 863 863 863 863 863 863 863 862 862 862 861 860 859 859 858 857 856 855 854 854 853 852 851 850 849 848 847 845 844 842 841 839 838 837 835 834 833 831 830 829 827 825 824 822 821 819 817 816 815 814 813 812 811 810 809 808 807 805 804 804 803 802 802 801 801 801 800 800 799 799 798 798 797 798 798 798 799
864 864 864 863 863 863 863 863 862 862 862 862 862 862 862 862 862 861 860 860 859 858 857 857 856 855 854 854 853 852 851 850 849 849 847 846 845 843 842 841 839 838 837 835 834 833 831 830 829 828 826 824 823 821 820 819 818 817 816 815 814 813 812 811 810 808 807 806 806 805 804 804 803 803 803 802 802 802 801 801 800 800 800 801 801
863 863 863 863 862 862 862 862 862 862 861 861 861 861 861 861 861 861 860 859 859 858 857 856 856 855 854 853 853 852 851 850 850 849 848 847 845 844 843 842 841 839 838 837 836 834 832 831 830 829 828 827 825 824 822 821 820 819 818 817 816 815 814 813 812 811 810 809 808 807 807 806 805 805 805 804 804 804 804 803 803 803 803 803 802
862 862 861 861 861 861 861 861 861 861 861 861 860 860 860 860 860 860 860 859 858 857 857 856 855 855 854 853 852 852 851 850 850 849 848 847 846 845 844 843 841 840 839 838 837 836 834 833 831 830 829 828 827 826 825 824 822 821 820 819 818 817 816 815 814 813 812 811 810 809 809 808 807 807 807 806 806 806 805 805 805 805 805 805 804
861 861 860 861 861 860 860 860 860 860 860 860 860 860 860 860 860 859 859 858 858 857 856 856 855 854 853 853 852 851 851 850 850 849 848 847 846 845 844 843 842 841 840 839 838 837 835 834 833 831 830 829 828 827 826 825 824 823 822 821 820 818 817 817 816 815 814 813 812 811 811 810 809 809 808 808 807 807 806 806 806 806 806 806 806
859 859 859 859 859 859 859 859 859 859 859 859 859 859 859 859 859 859 858 858 857 856 855 855 854 854 853 853 852 851 850 850 849 848 848 847 846 845 844 843 842 841 840 839 838 837 836 835 834 833 832 830 829 829 828 826 825 824 823 821 820 819 818 818 817 816 815 814 813 813 812 811 811 810 810 809 808 808 807 807 807 806 807 807 807
858 858 858 858 858 858 858 858 858 858 858 858 858 858 858 858 857 857 857 857 856 855 855 854 854 853 853 852 851 850 850 849 849 848 847 847 846 845 844 843 842 842 841 840 839 837 836 835 835 834 833 831 830 829 828 827 826 825 823 822 821 820 819 818 818 817 817 816 815 814 813 813 812 811 810 810 809 809 808 808 808 807 807 808 808
856 856 857 857 857 857 857 857 857 857 857 856 857 856 856 856 856 855 855 855 855 854 854 853 853 852 852 851 850 850 849 849 848 848 847 846 846 845 844 843 842 842 841 840 839 838 837 836 835 834 833 832 831 830 829 828 827 825 824 822 821 820 820 819 819 818 818 817 816 815 815 814 813 812 812 811 810 810 809 809 809 809 809 809 809
854 855 855 855 855 855 855 855 855 855 855 855 855 855 854 854 854 854 854 854 853 853 853 852 852 852 851 850 849 849 848 848 848 847 846 846 845 844 844 843 842 841 841 840 839 838 837 836 835 834 833 832 831 830 830 829 827 826 824 823 822 821 821 820 820 819 819 818 817 816 816 815 814 813 812 812 811 811 810 810 809 809 810 810 810
852 853 853 853 853 853 853 853 853 853 853 853 853 853 853 853 852 852 852 852 852 852 851 851 851 850 850 849 848 848 847 847 847 846 846 845 844 844 843 843 842 841 841 840 839 838 837 836 835 834 833 832 831 831 830 829 828 826 825 824 823 822 821 821 820 820 819 819 818 817 817 816 815 814 813 812 812 811 811 810 810 810 810 810 810